[[{"header":{"parameterUnit":"m.s-1","parameterCategory":1,"la1":30.2992,"la2":30.254,"lo1":-89.0895,"lo2":-89.0443,"dy":0.0025,"dx":0.0025,"nx":19,"ny":19,"refTime":"2026-04-26T21:00:00:Z","depth":0,"parameterNumber":2,"parameterNumberName":"U-component_of_WINDS"},"data":[0,0,0,-3.1274,-3.1276,-3.1323,-3.1323,-3.1391,-3.1392,0,0,0,0,0,0,0,0,0,0,0,-3.1265,-3.1266,-3.1274,-3.1276,-3.1323,-3.1323,-3.1391,-3.1392,0,0,0,0,0,0,0,0,0,0,0,-3.1265,-3.1265,-3.1266,-3.1276,-3.1323,-3.1323,-3.1391,-3.1352,0,0,0,0,0,0,0,0,0,0,-3.1305,-3.1301,-3.1265,-3.1266,-3.1276,-3.1323,-3.1323,-3.135,-3.1355,-3.1373,0,-3.1391,0,-3.1393,-3.1397,-3.1397,0,0,0,-3.1272,-3.1297,-3.1306,-3.1266,-3.1277,-3.1323,-3.13,-3.1353,-3.1358,-3.1379,-3.1391,-3.1394,-3.1394,-3.1397,-3.1398,-3.1516,-3.1517,0,0,-3.1269,-3.1276,-3.1303,-3.131,-3.1303,-3.1299,-3.1302,-3.1356,-3.137,-3.1392,-3.1395,-3.1395,-3.1398,-3.1399,-3.1516,-3.1516,0,0,0,-3.1264,-3.1274,-3.1281,-3.1307,-3.1315,-3.13,-3.1304,-3.1367,-3.1369,-3.1396,-3.1396,-3.1398,-3.1399,-3.1515,-3.1516,-3.1557,0,0,0,-3.1263,-3.1271,-3.128,-3.1285,-3.1314,-3.1342,-3.1314,-3.1365,-3.1371,-3.1395,-3.1398,-3.14,-3.1514,-3.1515,-3.1554,-3.1574,0,0,0,-3.126,-3.1271,-3.1279,-3.1285,-3.1305,-3.134,-3.1345,-3.1366,-3.1371,-3.1397,-3.14,-3.1513,-3.1515,-3.1551,-3.157,-3.1606,0,0,0,-3.1259,-3.1314,-3.128,-3.1342,-3.1305,-3.1366,-3.1345,-3.139,-3.1417,-3.1399,-3.1514,-3.1516,-3.155,-3.1567,-3.1604,-3.1637,-3.1652,0,0,-3.1332,-3.1323,-3.1359,-3.133,-3.1398,-3.1358,-3.1433,-3.1452,-3.1449,-3.1494,-3.1497,-3.1555,-3.1569,-3.1606,-3.1737,-3.1748,0,0,0,-3.1384,-3.141,-3.1427,-3.1454,-3.1471,-3.1486,-3.1494,-3.1501,-3.1539,-3.1474,-3.1579,-3.1587,-3.1608,-3.1624,-3.1634,-3.1651,-3.1524,-3.1524,-3.1523,-3.1493,-3.1488,-3.1547,-3.1548,-3.1574,-3.1583,-3.1604,-3.1615,-3.1601,-3.1626,-3.1638,-3.1718,-3.1737,-3.1744,-3.1762,-3.1657,-3.1657,-3.1658,-3.1658,-3.1598,-3.1633,-3.1615,-3.1665,-3.166,-3.1702,-3.1714,-3.1703,-3.1741,-3.1708,-3.1726,-3.1688,-3.1757,-3.1773,-3.1661,-3.166,-3.166,-3.1659,-3.1659,-3.1667,-3.1682,-3.1692,-3.1732,-3.1763,-3.1763,-3.1802,-3.1795,-3.179,-3.1808,-3.182,-3.1819,-3.1816,-3.1815,-3.1815,-3.1815,-3.1816,-3.1816,-3.1816,-3.1733,-3.1743,-3.1776,-3.1801,-3.1818,-3.1841,-3.1852,-3.1869,-3.1886,-3.1879,-3.1879,-3.1862,-3.1766,-3.1741,-3.182,-3.1819,-3.1819,-3.1819,-3.1818,-3.1837,-3.1813,-3.1864,-3.1882,-3.1912,-3.1944,-3.1937,-3.1973,-3.1986,-3.2006,-3.1986,-3.1918,-3.1907,-3.1899,-3.1878,-3.1988,-3.1988,-3.1988,-3.1988,-3.1893,-3.1889,-3.194,-3.1969,-3.1997,-3.1997,-3.2056,-3.2067,-3.2074,-3.2082,-3.2067,-3.2039,-3.2031,-3.2026,-3.2015,-3.1995,-3.2132,-3.2132,-3.2133,-3.1956,-3.1955,-3.2005,-3.2013,-3.2036,-3.2057,-3.2112,-3.2146,-3.215,-3.2138,-3.2088,-3.2082,-3.2038,-3.2025,-3.2008,-3.1991,-3.1955,0,0]},{"header":{"parameterUnit":"m.s-1","parameterCategory":1,"la1":30.2992,"la2":30.254,"lo1":-89.0895,"lo2":-89.0443,"dy":0.0025,"dx":0.0025,"nx":19,"ny":19,"refTime":"2026-04-26T21:00:00:Z","depth":0,"parameterNumber":3,"parameterNumberName":"V-component_of_WINDS"},"data":[0,0,0,2.9468,2.9467,2.9431,2.9431,2.9388,2.9387,0,0,0,0,0,0,0,0,0,0,0,2.9482,2.9481,2.9468,2.9467,2.9431,2.9431,2.9388,2.9387,0,0,0,0,0,0,0,0,0,0,0,2.9482,2.9482,2.9481,2.9467,2.9431,2.9431,2.9388,2.9413,0,0,0,0,0,0,0,0,0,0,2.9448,2.9464,2.9482,2.9481,2.9467,2.9431,2.9431,2.9415,2.9412,2.9406,0,2.9402,0,2.9394,2.9385,2.9384,0,0,0,2.9464,2.9466,2.9454,2.9481,2.9467,2.9431,2.9447,2.9413,2.941,2.9402,2.9402,2.94,2.9394,2.9384,2.9384,2.9364,2.9364,0,0,2.9466,2.9476,2.9456,2.9452,2.946,2.9448,2.9445,2.9411,2.9411,2.9401,2.9399,2.9393,2.9384,2.9384,2.9364,2.9364,0,0,0,2.9474,2.9478,2.9466,2.9454,2.9448,2.9447,2.9444,2.9412,2.9408,2.9398,2.9392,2.9384,2.9383,2.9364,2.9364,2.9378,0,0,0,2.9475,2.9482,2.9467,2.9473,2.9449,2.943,2.9446,2.941,2.9406,2.9393,2.9384,2.9383,2.9364,2.9364,2.9377,2.9382,0,0,0,2.9483,2.9483,2.9479,2.9474,2.9459,2.943,2.9424,2.9409,2.9402,2.9384,2.9383,2.9364,2.9364,2.9377,2.9381,2.9381,0,0,0,2.9493,2.949,2.948,2.9473,2.9459,2.944,2.9424,2.9408,2.9394,2.9384,2.9364,2.9364,2.9377,2.9381,2.9381,2.9383,2.9385,0,0,2.9494,2.949,2.9485,2.9476,2.9461,2.9444,2.9431,2.9407,2.9394,2.9374,2.9374,2.9377,2.9381,2.9381,2.9392,2.9394,0,0,0,2.9489,2.9486,2.948,2.9469,2.9453,2.9439,2.9417,2.9409,2.9392,2.9387,2.9377,2.9378,2.9378,2.9379,2.938,2.938,2.9364,2.9364,2.9364,2.9503,2.9491,2.9483,2.9467,2.9456,2.9435,2.9425,2.941,2.9397,2.9396,2.9389,2.9398,2.9399,2.94,2.94,2.9389,2.9389,2.9389,2.9389,2.9504,2.9498,2.9485,2.9473,2.946,2.9448,2.9429,2.9421,2.9408,2.9401,2.9399,2.9393,2.9403,2.9402,2.939,2.939,2.939,2.939,2.939,2.9512,2.9507,2.9499,2.9484,2.9473,2.9456,2.9446,2.9433,2.942,2.9419,2.9413,2.9412,2.9411,2.9417,2.9417,2.9417,2.9417,2.9417,2.9417,2.9524,2.9514,2.9508,2.9494,2.9486,2.9475,2.9456,2.9447,2.9435,2.9426,2.9426,2.9415,2.9406,2.9405,2.9418,2.9418,2.9418,2.9418,2.9418,2.9529,2.9527,2.9517,2.951,2.9493,2.9485,2.9469,2.9455,2.9446,2.9442,2.9432,2.9427,2.9421,2.942,2.9418,2.9434,2.9434,2.9434,2.9434,2.9536,2.9533,2.9522,2.9512,2.9501,2.9488,2.9478,2.9464,2.9448,2.9442,2.9438,2.9435,2.9435,2.9429,2.9427,2.9426,2.9443,2.9443,2.9443,2.9539,2.9535,2.9529,2.9517,2.9503,2.9491,2.9482,2.9471,2.9452,2.9443,2.9438,2.9437,2.9432,2.9431,2.9421,2.9419,2.9416,0,0]}]]